Ravenna, OH

3:30 AM EDT on June 29, 2017 (GMT -0400)
Ravenna

Weather History for KPOV - September, 2013

Change the Weather History Date:

Sunday, September 8, 2013

  Actual Average (KCAK) Record (KCAK)
Temperature  
Mean Temperature 62 °F -  
Max Temperature 74 °F 77 °F 95 °F (1933)
Min Temperature 51 °F 56 °F 38 °F (1951)
Degree Days  
Heating Degree Days 2    
Growing Degree Days 12 (Base 50)    
Moisture  
Dew Point 60 °F    
Average Humidity 82    
Maximum Humidity 100    
Minimum Humidity 55    
Precipitation  
Precipitation 0.00 in - - ()
Sea Level Pressure  
Sea Level Pressure 30.02 in    
Wind  
Wind Speed 3 mph (NNE)    
Max Wind Speed 10 mph    
Max Gust Speed 18 mph    
Visibility 9 miles    
Events      
Averages and records for this station are not official NWS values.
T = Trace of Precipitation, MM = Missing Value Source: NWS Daily Summary

Daily Weather History Graph

Daily Weather History Graph

Search for Another Location

Airport or City:

Trip Planner

Search our weather history database for the weather conditions in past years. The results will help you decide how hot, cold, wet, or windy it might be!

Date:

Astronomy

Sep. 08, 2013 Rise Set
Actual Time 6:58 AM EDT 7:45 PM EDT
Civil Twilight 6:30 AM EDT 8:13 PM EDT
Nautical Twilight 5:57 AM EDT 8:46 PM EDT
Astronomical Twilight 5:23 AM EDT 9:20 PM EDT
Moon 10:17 AM EDT (9/8) 9:17 PM EDT (9/8)
Length of Visible Light 13h 42m
Length of Day
12h 47m
Waxing Crescent, 11% of the Moon is Illuminated
Sep 8
Waxing Crescent
Sep 12
First Quarter
Sep 19
Full
Sep 26
Last Quarter
Oct 4
New

Hourly Weather History & Observations

Time (EDT) Temp. Dew Point Humidity Pressure Visibility Wind Dir Wind Speed Gust Speed Precip Events Conditions
12:14 AM 69.4 °F 62.1 °F 77% 29.96 in 10.0 mi Calm Calm - N/A   Overcast
12:34 AM 68.5 °F 62.2 °F 80% 29.96 in 10.0 mi Calm Calm - N/A   Overcast
12:53 AM 69.1 °F 62.4 °F 79% 29.95 in 10.0 mi Calm Calm - N/A   Overcast
1:14 AM 68.7 °F 62.4 °F 80% 29.96 in 10.0 mi WSW 3.5 mph - N/A   Overcast
1:33 AM 68.9 °F 62.4 °F 80% 29.95 in 10.0 mi SW 3.5 mph - N/A   Overcast
1:54 AM 68.0 °F 62.4 °F 82% 29.95 in 10.0 mi WSW 3.5 mph - N/A   Overcast
2:14 AM 67.5 °F 63.0 °F 85% 29.94 in 10.0 mi Calm Calm - N/A   Overcast
2:33 AM 68.4 °F 62.6 °F 82% 29.94 in 10.0 mi WSW 3.5 mph - N/A   Overcast
2:54 AM 68.2 °F 62.8 °F 83% 29.94 in 10.0 mi WSW 3.5 mph - N/A   Overcast
3:14 AM 66.9 °F 62.8 °F 87% 29.93 in 10.0 mi Calm Calm - N/A   Overcast
3:34 AM 65.5 °F 65.3 °F 99% 29.94 in 10.0 mi Calm Calm - N/A   Scattered Clouds
3:53 AM 66.2 °F 65.1 °F 96% 29.94 in 10.0 mi Calm Calm - N/A   Mostly Cloudy
4:14 AM 66.6 °F 66.0 °F 98% 29.94 in 10.0 mi Calm Calm - N/A   Overcast
4:34 AM 67.3 °F 64.9 °F 92% 29.94 in 10.0 mi Calm Calm - N/A   Overcast
4:53 AM 66.4 °F 65.1 °F 96% 29.94 in 10.0 mi Calm Calm - N/A   Mostly Cloudy
5:14 AM 65.7 °F 65.1 °F 98% 29.94 in 10.0 mi Calm Calm - N/A   Mostly Cloudy
5:34 AM 65.5 °F 64.8 °F 98% 29.95 in 10.0 mi Calm Calm - N/A   Overcast
5:53 AM 66.0 °F 64.9 °F 96% 29.95 in 10.0 mi Calm Calm - N/A   Overcast
6:14 AM 65.7 °F 65.5 °F 99% 29.95 in 10.0 mi Calm Calm - N/A   Mostly Cloudy
6:34 AM 66.4 °F 65.3 °F 96% 29.96 in 10.0 mi NW 3.5 mph - N/A   Mostly Cloudy
6:54 AM 66.2 °F 65.7 °F 98% 29.96 in 10.0 mi WNW 3.5 mph - N/A   Mostly Cloudy
7:14 AM 65.7 °F 65.8 °F 100% 29.97 in 7.0 mi WNW 3.5 mph - N/A   Scattered Clouds
7:34 AM 65.8 °F 66.2 °F 100% 29.98 in 7.0 mi Calm Calm - N/A   Mostly Cloudy
7:53 AM - - N/A% 29.98 in 7.0 mi NNW 3.5 mph - N/A   Overcast
8:14 AM 67.3 °F 67.5 °F 100% 29.98 in 5.0 mi North 3.5 mph - N/A   Overcast
8:34 AM 68.0 °F 68.2 °F 100% 29.99 in 5.0 mi North 4.6 mph - N/A   Overcast
8:53 AM - - N/A% 29.99 in 5.0 mi North 6.9 mph - N/A   Overcast
9:14 AM 68.5 °F 68.7 °F 100% 30.00 in 5.0 mi NNE 3.5 mph - N/A   Overcast
9:33 AM 68.4 °F 68.5 °F 100% 30.00 in 4.0 mi NE 6.9 mph - N/A   Overcast
9:54 AM 67.8 °F 68.0 °F 100% 30.01 in 1.8 mi NNE 6.9 mph - N/A   Overcast
10:14 AM 67.3 °F 67.5 °F 100% 30.01 in 3.0 mi NNE 5.8 mph - N/A   Overcast
10:34 AM 66.7 °F 66.9 °F 100% 30.02 in 2.5 mi NNE 9.2 mph - N/A   Overcast
10:53 AM 66.0 °F 66.2 °F 100% 30.03 in 5.0 mi NE 5.8 mph - N/A   Overcast
11:14 AM 66.9 °F 66.4 °F 98% 30.03 in 10.0 mi NE 10.4 mph - N/A   Overcast
11:34 AM 66.7 °F 65.5 °F 96% 30.04 in 10.0 mi NE 5.8 mph - N/A   Overcast
11:53 AM 67.5 °F 64.6 °F 90% 30.04 in 10.0 mi NE 4.6 mph - N/A   Overcast
12:14 PM 67.5 °F 64.6 °F 90% 30.05 in 10.0 mi ENE 9.2 mph - N/A   Overcast
12:33 PM 69.4 °F 63.7 °F 82% 30.04 in 10.0 mi NE 6.9 mph - N/A   Overcast
12:54 PM 68.5 °F 63.1 °F 83% 30.05 in 10.0 mi North 6.9 mph - N/A   Overcast
1:14 PM 69.8 °F 63.0 °F 79% 30.05 in 10.0 mi NE 5.8 mph - N/A   Overcast
1:34 PM 69.8 °F 60.4 °F 72% 30.05 in 10.0 mi NNE 5.8 mph - N/A   Overcast
1:53 PM 70.0 °F 60.4 °F 72% 30.06 in 10.0 mi North 5.8 mph - N/A   Overcast
2:14 PM 72.5 °F 61.7 °F 69% 30.06 in 10.0 mi NNE 8.1 mph - N/A   Mostly Cloudy
2:33 PM 72.9 °F 60.3 °F 65% 30.06 in 10.0 mi North 8.1 mph - N/A   Mostly Cloudy
2:53 PM 74.1 °F 58.6 °F 58% 30.05 in 10.0 mi North 9.2 mph - N/A   Overcast
3:14 PM 74.7 °F 58.8 °F 58% 30.05 in 10.0 mi NNE 10.4 mph - N/A   Scattered Clouds
3:33 PM 74.5 °F 57.4 °F 55% 30.05 in 10.0 mi NE 10.4 mph 18.4 mph N/A   Mostly Cloudy
3:53 PM 72.7 °F 57.2 °F 58% 30.05 in 10.0 mi NE 8.1 mph - N/A   Scattered Clouds
4:14 PM 73.2 °F 57.2 °F 57% 30.05 in 10.0 mi NNE 10.4 mph - N/A   Clear
4:34 PM 73.2 °F 57.0 °F 57% 30.05 in 10.0 mi ENE 10.4 mph - N/A   Clear
4:53 PM 72.1 °F 57.6 °F 60% 30.04 in 10.0 mi NNE 5.8 mph - N/A   Scattered Clouds
5:14 PM 71.2 °F 56.1 °F 59% 30.04 in 10.0 mi North 8.1 mph - N/A   Scattered Clouds
5:34 PM 70.2 °F 56.1 °F 61% 30.05 in 10.0 mi NE 3.5 mph - N/A   Unknown
5:53 PM 70.2 °F 55.8 °F 60% 30.05 in 10.0 mi NE 5.8 mph - N/A   Unknown
6:14 PM 69.4 °F 55.4 °F 61% 30.05 in 10.0 mi North 4.6 mph - N/A   Unknown
6:33 PM 68.4 °F 55.2 °F 63% 30.06 in 10.0 mi NE 3.5 mph - N/A   Unknown
6:53 PM 67.3 °F 54.3 °F 63% 30.07 in 10.0 mi NNE 6.9 mph - N/A   Clear
7:14 PM 65.1 °F 53.2 °F 65% 30.06 in 10.0 mi NNE 4.6 mph - N/A   Clear
7:34 PM 63.7 °F 52.7 °F 67% 30.07 in 10.0 mi NE 5.8 mph - N/A   Clear
7:53 PM 62.4 °F 52.2 °F 69% 30.07 in 10.0 mi NE 4.6 mph - N/A   Clear
8:14 PM 60.8 °F 51.3 °F 71% 30.07 in 10.0 mi NE 4.6 mph - N/A   Clear
8:34 PM 59.9 °F 50.9 °F 72% 30.08 in 10.0 mi NNE 4.6 mph - N/A   Clear
8:53 PM 59.9 °F 50.0 °F 70% 30.08 in 10.0 mi NNE 6.9 mph - N/A   Clear
9:14 PM 59.5 °F 49.3 °F 69% 30.09 in 10.0 mi NNE 5.8 mph - N/A   Clear
9:33 PM 57.7 °F 49.1 °F 73% 30.09 in 10.0 mi NE 5.8 mph - N/A   Clear
9:54 PM 54.9 °F 49.3 °F 81% 30.09 in 10.0 mi NE 3.5 mph - N/A   Clear
10:14 PM 54.1 °F 49.3 °F 84% 30.09 in 10.0 mi Calm Calm - N/A   Clear
10:33 PM 54.7 °F 49.3 °F 82% 30.09 in 10.0 mi Calm Calm - N/A   Clear
10:54 PM 54.3 °F 50.2 °F 86% 30.09 in 10.0 mi Calm Calm - N/A   Clear
11:14 PM 54.0 °F 50.4 °F 88% 30.09 in 10.0 mi East 3.5 mph - N/A   Clear
11:34 PM 51.6 °F 51.6 °F 100% 30.09 in 10.0 mi ENE 5.8 mph - N/A   Clear
11:53 PM 51.8 °F 51.3 °F 98% 30.09 in 10.0 mi ENE 6.9 mph - N/A   Clear